Regional Weather Roundup
Issued by NWS

Home | Current Version | Previous Version | Graphics & Text | Print | Product List | Glossary On
Versions: 1 2 3 4 5 6 7 8 9 10 11 12 13 14 15 16 17 18 19 20 21 22 23 24 25 26 27 28 29 30 31 32 33 34 35 36 37 38 39 40 41 42 43 44 45 46 47 48 49 50
576
ASUS45 KSLC 211510
RWRUT

UTAH REGIONAL WEATHER ROUNDUP
NATIONAL WEATHER SERVICE SALT LAKE CITY UT
900 AM MDT THU SEP 21 2017

UTZ001>011-023>025-211600-

NORTHERN UTAH

CITY           SKY/WX    TMP DP  RH WIND       PRES   REMARKS
BRIGHAM CITY   CLOUDY    49  39  69 NW13      29.79R
HILL AFB       PTSUNNY   50  40  70 N8        29.77R
LOGAN          CLOUDY    48  43  82 CALM      29.78R
OGDEN          CLOUDY    51  42  71 NW7       29.77R
SALT LAKE CITY PTSUNNY   54  44  69 N8        29.76R
TOOELE VALLEY  CLOUDY    50  41  71 W13       29.78S
WENDOVER       LGT RAIN  46  41  82 NW13      29.81R
HEBER CITY     MOSUNNY   63  32  31 S8        29.70S
WEST JORDAN    CLOUDY    50  47  92 NW8       29.78S

$$

UTZ011>015-024>027-211600-

CENTRAL/NORTHEAST UTAH

CITY           SKY/WX    TMP DP  RH WIND       PRES   REMARKS
PROVO AIRPORT  MOSUNNY   56  44  64 NW10      29.74R
MOAB/CANYONLAN SUNNY     73  36  25 S21G28    29.78S
DELTA          SUNNY     50  39  66 N15       29.74R
PRICE          SUNNY     62  38  40 SE8       29.82S
RICHFIELD      SUNNY     64  39  39 S16       29.75S
ROOSEVELT      SUNNY     61  37  41 CALM      29.78S
VERNAL         SUNNY     66  35  31 SW10      29.76S

$$

UTZ013>016-019>022-027-211600-

SOUTHERN UTAH

CITY           SKY/WX    TMP DP  RH WIND       PRES   REMARKS
BRYCE CANYON   SUNNY     52  37  56 SE13      29.97S
CEDAR CITY     SUNNY     64  36  35 S29G39    29.78R
MILFORD        SUNNY     64  40  41 S23G30    29.73R
ST GEORGE      MOSUNNY   75  39  27 SE12      29.73R
HANKSVILLE     SUNNY     72  36  26 S17G23    29.79S
KANAB          SUNNY     66  37  34 S9        29.90S
BLANDING         N/A     63  30  28 S16G22    30.04S

$$

REGIONAL REPORTS     COLORADO/ARIZONA

CITY           SKY/WX    TMP DP  RH WIND       PRES   REMARKS
CRAIG, CO      SUNNY     68  26  20 SW12G21   29.85R
GRAND JUNCTION SUNNY     71  38  29 SE21G29   29.83S
RIFLE, CO      SUNNY     66  34  30 NE3       29.87R
MONTROSE, CO   SUNNY     69  29  22 SE8       29.94F
CORTEZ, CO     SUNNY     65  30  27 S12       30.01S
PAGE, AZ       SUNNY     72  38  29 S14G21    29.82R
GRAND CANYON   SUNNY     57  44  62 S14       30.01R
KINGMAN, AZ    SUNNY     74  38  27 SE9       29.82S
FLAGSTAFF, AZ  SUNNY     54  31  41 SW18G28   30.05S

$$

REGIONAL REPORTS    NEVADA/IDAHO/WYOMING

CITY           SKY/WX    TMP DP  RH WIND       PRES   REMARKS
LAS VEGAS, NV  SUNNY     74  42  31 S15G25    29.68S
ELY, NY        CLOUDY    46  35  65 N14       29.80S
ELKO, NV       LGT RAIN  38  34  85 NE5       29.84R WCI  34
POCATELLO, ID  NOT AVBL
BURLEY, ID     LGT RAIN  41  39  93 SW7       29.81R
FORT BRIDGER,    N/A     46  38  73 N5        29.82R
EVANSTON, WY   CLOUDY    45  39  79 W7        29.78R
ROCK SPRINGS,  SUNNY     56  32  40 SW15      29.77F
KEMMERER, WY     N/A     41  36  81 CALM      29.80S

$$




USA.gov is the U.S. government's official web portal to all federal, state and local government web resources and services.